Flag for Germany Weather past 2 weeks in Husum, Schleswig-Holstein, Germany

Now
52 °F

Partly sunny.


Feels Like: 50 °F
Forecast: 52 / 57 °F
Wind: 6 mph from South

Location: Schleswig-Jagel

Current Time: Oct 23, 2014 at 11:39:43 AM

Latest Report: Oct 23, 2014 at 10:20 AM


Visibility: N/A

Pressure: 30.12 "Hg

Humidity: 82%

Dew point: 46 °F

Location of HusumLocation

Historic Weather in Husum — Graph

°F

Husum temperature yesterday

Maximum temperature yesterday: 59 °F (at 3:20 PM)
Minimum temperature yesterday: 48 °F (at 3:20 AM)
Average temperature yesterday: 52 °F

Past Weeks' High & Low Weather Summary

 TemperatureHumidityPressure
High64 °F (Oct 9, 1:20 PM)100% (Oct 11, 12:20 AM)30.12 "Hg (Oct 11, 12:20 AM)
Low46 °F (Oct 11, 8:20 AM)63% (Oct 12, 2:20 PM)29.30 "Hg (Oct 21, 7:20 PM)
Average55 °F90%29.78 "Hg
* Reported Oct 8 10:20 AM — Oct 23 10:20 AM, Husum, Weather by CustomWeather, © 2014

Note: Actual official high and low records may vary slightly from our data, if they occured in-between our weather recording intervals... More about our weather records

Advertising

Husum weather history for previous 24 hours

 ConditionsComfort  
Time TempWeatherWind HumidityBarometerVisibility
10:20 AM
Oct 23
52 °FPartly sunny.6 mph82%30.12 "HgN/A
9:20 AM50 °FScattered clouds.5 mph82%30.12 "HgN/A
8:20 AM46 °FPassing clouds.5 mph93%30.09 "HgN/A
7:20 AM46 °FPassing clouds.3 mph93%30.09 "HgN/A
6:20 AM48 °FPassing clouds.3 mph87%30.09 "HgN/A
5:20 AM48 °FCool.3 mph94%30.07 "Hg4 mi
4:20 AM48 °FCool.6 mph94%30.07 "Hg3 mi
3:20 AM48 °FCool.5 mph87%30.07 "Hg4 mi
2:20 AM48 °FCool.5 mph87%30.07 "Hg4 mi
1:20 AM50 °FCool.7 mph82%30.04 "Hg4 mi
12:20 AM50 °FCool.7 mph88%30.04 "Hg4 mi
11:20 PM
Oct 22
52 °FCool.10 mph82%30.01 "Hg4 mi
10:20 PM50 °FCool.10 mph94%30.01 "Hg2 mi
9:20 PM52 °FCool.15 mph94%29.98 "Hg4 mi
9:00 PM52 °FPassing clouds.13 mph94%29.98 "Hg4 mi
8:20 PM52 °FPassing clouds.10 mph94%29.95 "HgN/A
7:20 PM52 °FPassing clouds.13 mph94%29.92 "HgN/A
6:20 PM54 °FPartly sunny.13 mph88%29.89 "HgN/A
5:20 PM54 °FPartly sunny.17 mph88%29.86 "HgN/A
4:20 PM55 °FScattered clouds.16 mph82%29.83 "HgN/A
3:20 PM59 °FScattered clouds.13 mph72%29.80 "HgN/A
2:20 PM57 °FScattered clouds.13 mph77%29.77 "HgN/A
1:20 PM57 °FScattered clouds.12 mph77%29.74 "HgN/A
12:20 PM55 °FScattered clouds.9 mph77%29.71 "HgN/A
11:20 AM52 °FPartly sunny.9 mph88%29.68 "HgN/A
Weather by CustomWeather, © 2014

See weather overviewHow to use our weather pages